Weather History for KTQE - January, 2015

Change the Weather History Date:

Tuesday, January 13, 2015

  Actual Average Record
Temperature  
Mean Temperature 8 °F -  
Max Temperature 23 °F 30 °F 60 °F (1987)
Min Temperature -8 °F 7 °F -18 °F (1964)
Degree Days  
Heating Degree Days 58    
Moisture  
Dew Point 0 °F    
Average Humidity 69    
Maximum Humidity 80    
Minimum Humidity 48    
Precipitation  
Precipitation 0.00 in - - ()
Sea Level Pressure  
Sea Level Pressure 30.64 in    
Wind  
Wind Speed 6 mph (South)    
Max Wind Speed 13 mph    
Max Gust Speed -    
Visibility 10 miles    
Events      
Averages and records for this station are not official NWS values.
T = Trace of Precipitation, MM = Missing Value Source: NWS Daily Summary

Daily Weather History Graph

Daily Weather History Graph

Search for Another Location

Airport or City:

Trip Planner

Search our weather history database for the weather conditions in past years. The results will help you decide how hot, cold, wet, or windy it might be!

Date:

Astronomy

Jan. 13, 2015 Rise Set
Actual Time 7:50 AM CST 5:16 PM CST
Civil Twilight 7:19 AM CST 5:47 PM CST
Nautical Twilight 6:45 AM CST 6:21 PM CST
Astronomical Twilight 6:11 AM CST 6:55 PM CST
Moon 12:42 AM CST (1/13) 12:00 PM CST (1/13)
Length of Visible Light 10h 27m
Length of Day
9h 26m
Waning Gibbous, 47% of the Moon is Illuminated
Jan 13
Waning Gibbous
Jan 20
New
Jan 26
First Quarter
Feb 3
Full
Feb 11
Last Quarter

Hourly Weather History & Observations

Time (CST) Temp. Windchill Dew Point Humidity Pressure Visibility Wind Dir Wind Speed Gust Speed Precip Events Conditions
12:54 AM -4.0 °F -16.3 °F -9.0 °F 79% 30.81 in 10.0 mi NNW 5.8 mph - N/A   Clear
1:54 AM -5.1 °F -15.8 °F -9.9 °F 80% 30.81 in 10.0 mi NNW 4.6 mph - N/A   Clear
2:54 AM -6.0 °F -16.9 °F -11.0 °F 79% 30.81 in 10.0 mi NNW 4.6 mph - N/A   Clear
3:54 AM -6.0 °F -16.9 °F -11.0 °F 79% 30.79 in 10.0 mi North 4.6 mph - N/A   Clear
4:54 AM -7.1 °F -15.9 °F -13.0 °F 75% 30.78 in 10.0 mi North 3.5 mph - N/A   Clear
5:54 AM -7.1 °F - -13.0 °F 75% 30.78 in 10.0 mi Calm Calm - N/A   Clear
6:54 AM -8.0 °F - -13.0 °F 79% 30.76 in 10.0 mi Calm Calm - N/A   Clear
7:54 AM -8.0 °F -16.9 °F -13.0 °F 79% 30.75 in 10.0 mi East 3.5 mph - N/A   Clear
8:54 AM -2.9 °F -16.5 °F -8.0 °F 79% 30.73 in 10.0 mi SE 6.9 mph - N/A   Clear
9:54 AM 1.9 °F -12.9 °F -2.9 °F 80% 30.74 in 10.0 mi South 9.2 mph - N/A   Clear
10:54 AM 7.0 °F -5.7 °F 1.0 °F 77% 30.72 in 10.0 mi South 8.1 mph - N/A   Clear
11:54 AM 12.0 °F -0.4 °F 5.0 °F 73% 30.67 in 10.0 mi SSE 9.2 mph - N/A   Clear
12:54 PM 17.1 °F 4.3 °F 6.1 °F 62% 30.62 in 10.0 mi South 11.5 mph - N/A   Overcast
1:54 PM 19.9 °F 8.6 °F 7.0 °F 57% 30.58 in 10.0 mi South 10.4 mph - N/A   Clear
2:54 PM 21.9 °F 11.0 °F 7.0 °F 53% 30.56 in 10.0 mi South 10.4 mph - N/A   Partly Cloudy
3:54 PM 23.0 °F 12.4 °F 6.1 °F 48% 30.54 in 10.0 mi SSW 10.4 mph - N/A   Clear
4:54 PM 21.9 °F 11.0 °F 8.1 °F 55% 30.53 in 10.0 mi South 10.4 mph - N/A   Mostly Cloudy
5:54 PM 21.9 °F 11.7 °F 10.0 °F 60% 30.52 in 10.0 mi South 9.2 mph - N/A   Overcast
6:54 PM 21.9 °F 11.7 °F 10.0 °F 60% 30.52 in 10.0 mi South 9.2 mph - N/A   Overcast
7:54 PM 23.0 °F 13.1 °F 10.9 °F 60% 30.48 in 10.0 mi South 9.2 mph - N/A   Overcast
8:54 PM 23.0 °F 12.4 °F 12.0 °F 63% 30.47 in 10.0 mi South 10.4 mph - N/A   Overcast
9:54 PM 21.0 °F 12.4 °F 10.9 °F 65% 30.45 in 10.0 mi South 6.9 mph - N/A   Overcast
10:54 PM 21.9 °F 11.0 °F 10.9 °F 63% 30.43 in 10.0 mi South 10.4 mph - N/A   Overcast
11:54 PM 21.9 °F 9.8 °F 10.9 °F 63% 30.41 in 10.0 mi South 12.7 mph - N/A   Overcast